When you browse on this site, cookies collect data to enhance your experience and personalize the content and advertising you see.
Visit our Privacy Policy to learn more. By continuing to use the site, you agree to this use of cookies and data.
  • în România
  • Lista ţărilor
  • Pe 7 zile
  • Temperatura apei
  • Hartă satelitară
  • Meteo pe hartă
  • Widget-uri
  • user-avatar
    Intrare

    Meteo pe oră la Cincinnati

    Astăzi, 10 Decembrie, Luni

    Timp Temperatura Precipitaţii Vânt Presiune Umiditate
    00:00 -5°C° 0 mm 2 m/s 750 mmHg 68%
    01:00 -5°C° 0 mm 2 m/s 750 mmHg 67%
    02:00 -5°C° 0 mm 2 m/s 750 mmHg 66%
    03:00 -5°C° 0 mm 2 m/s 750 mmHg 65%
    04:00 -5°C° 0 mm 2 m/s 750 mmHg 65%
    05:00 -5°C° 0 mm 2 m/s 750 mmHg 65%
    06:00 -6°C° 0 mm 2 m/s 750 mmHg 65%
    07:00 -5°C° 0 mm 2 m/s 751 mmHg 61%
    08:00 -4°C° 0 mm 2 m/s 751 mmHg 57%
    09:00 -3°C° 0 mm 2 m/s 751 mmHg 52%
    10:00 -1°C° 0 mm 2 m/s 751 mmHg 47%
    11:00 +2°C° 0 mm 1 m/s 751 mmHg 42%
    12:00 +4°C° 0 mm 1 m/s 750 mmHg 36%
    13:00 +4°C° 0 mm 1 m/s 750 mmHg 38%
    14:00 +4°C° 0 mm 1 m/s 750 mmHg 41%
    15:00 +4°C° 0 mm 1 m/s 750 mmHg 43%
    16:00 +2°C° 0 mm 1 m/s 750 mmHg 50%
    17:00 0°C° 0 mm 1 m/s 750 mmHg 56%
    18:00 -1°C° 0 mm 1 m/s 751 mmHg 63%
    19:00 -2°C° 0 mm 1 m/s 751 mmHg 65%
    20:00 -2°C° 0 mm 1 m/s 751 mmHg 68%
    21:00 -2°C° 0 mm 1 m/s 751 mmHg 70%
    22:00 -2°C° 0 mm 1 m/s 751 mmHg 70%
    23:00 -2°C° 0 mm 1 m/s 750 mmHg 71%

    Mâine, 11 Decembrie, Marţi

    Timp Temperatura Precipitaţii Vânt Presiune Umiditate
    00:00 -5°C° 0 mm 2 m/s 750 mmHg 71%
    01:00 -5°C° 0 mm 2 m/s 750 mmHg 71%
    02:00 -5°C° 0 mm 2 m/s 750 mmHg 70%
    03:00 -5°C° 0 mm 2 m/s 750 mmHg 70%
    04:00 -5°C° 0 mm 2 m/s 750 mmHg 69%
    05:00 -6°C° 0 mm 3 m/s 750 mmHg 69%
    06:00 -6°C° 0 mm 3 m/s 750 mmHg 68%
    07:00 -5°C° 0 mm 3 m/s 750 mmHg 63%
    08:00 -4°C° 0 mm 4 m/s 751 mmHg 58%
    09:00 -3°C° 0 mm 4 m/s 751 mmHg 53%
    10:00 -1°C° 0 mm 4 m/s 750 mmHg 49%
    11:00 +1°C° 0 mm 5 m/s 750 mmHg 45%
    12:00 +2°C° 0 mm 5 m/s 749 mmHg 42%
    13:00 +2°C° 0 mm 5 m/s 748 mmHg 44%
    14:00 +3°C° 0 mm 4 m/s 748 mmHg 47%
    15:00 +3°C° 0 mm 4 m/s 748 mmHg 49%
    16:00 +1°C° 0 mm 4 m/s 748 mmHg 55%
    17:00 +1°C° 0 mm 3 m/s 748 mmHg 61%
    18:00 -1°C° 0 mm 3 m/s 748 mmHg 67%
    19:00 -1°C° 0 mm 3 m/s 749 mmHg 70%
    20:00 -2°C° 0 mm 3 m/s 749 mmHg 73%
    21:00 -2°C° 0 mm 2 m/s 749 mmHg 77%
    22:00 -2°C° 0 mm 2 m/s 749 mmHg 79%
    23:00 -3°C° 0 mm 2 m/s 749 mmHg 81%

    Poimâine, 12 Decembrie, Miercuri

    Timp Temperatura Precipitaţii Vânt Presiune Umiditate
    00:00 -3°C° 0 mm 2 m/s 749 mmHg 83%
    01:00 -1°C° 0 mm 1 m/s 749 mmHg 84%
    02:00 -1°C° 0 mm 1 m/s 749 mmHg 84%
    03:00 -1°C° 0 mm 1 m/s 749 mmHg 85%
    04:00 -1°C° 0 mm 1 m/s 749 mmHg 85%
    05:00 -3°C° 0 mm 2 m/s 749 mmHg 85%
    06:00 -2°C° 0 mm 2 m/s 749 mmHg 85%
    07:00 -2°C° 0 mm 2 m/s 749 mmHg 81%
    08:00 -1°C° 0 mm 3 m/s 749 mmHg 77%
    09:00 0°C° 0 mm 3 m/s 748 mmHg 73%
    10:00 +1°C° 0.1 mm 3 m/s 748 mmHg 72%
    11:00 +2°C° 0.1 mm 3 m/s 747 mmHg 72%
    12:00 +1°C° 0.1 mm 4 m/s 747 mmHg 71%
    13:00 +3°C° 0 mm 4 m/s 746 mmHg 69%
    14:00 +4°C° 0 mm 4 m/s 746 mmHg 68%
    15:00 +3°C° 0 mm 5 m/s 745 mmHg 66%
    16:00 +4°C° 0.2 mm 4 m/s 745 mmHg 69%
    17:00 +3°C° 0.2 mm 4 m/s 746 mmHg 72%
    18:00 +3°C° 0.2 mm 4 m/s 746 mmHg 75%
    19:00 +3°C° 0 mm 4 m/s 746 mmHg 76%
    20:00 +3°C° 0 mm 4 m/s 746 mmHg 77%
    21:00 +3°C° 0 mm 4 m/s 746 mmHg 78%
    22:00 +1°C° 0 mm 4 m/s 746 mmHg 81%
    23:00 +1°C° 0 mm 4 m/s 746 mmHg 83%

    13 Decembrie, Joi

    Timp Temperatura Precipitaţii Vânt Presiune Umiditate
    00:00 +1°C° 0 mm 4 m/s 746 mmHg 86%
    01:00 +2°C° 0 mm 3 m/s 746 mmHg 87%
    02:00 +2°C° 0 mm 3 m/s 746 mmHg 88%
    03:00 +2°C° 0 mm 3 m/s 747 mmHg 89%
    04:00 +1°C° 0 mm 3 m/s 747 mmHg 90%
    05:00 +1°C° 0 mm 3 m/s 747 mmHg 92%
    06:00 +1°C° 0 mm 2 m/s 747 mmHg 93%
    07:00 +2°C° 0 mm 2 m/s 748 mmHg 90%
    08:00 +2°C° 0 mm 3 m/s 748 mmHg 88%
    09:00 +3°C° 0 mm 3 m/s 748 mmHg 85%
    10:00 +4°C° 0 mm 3 m/s 748 mmHg 84%
    11:00 +5°C° 0 mm 3 m/s 747 mmHg 83%
    12:00 +7°C° 0 mm 3 m/s 747 mmHg 83%
    13:00 +7°C° 0.3 mm 3 m/s 747 mmHg 86%
    14:00 +5°C° 0.3 mm 3 m/s 746 mmHg 89%
    15:00 +5°C° 0.3 mm 3 m/s 746 mmHg 92%
    16:00 +5°C° 0.4 mm 3 m/s 746 mmHg 92%
    17:00 +4°C° 0.4 mm 3 m/s 746 mmHg 91%
    18:00 +4°C° 0.4 mm 3 m/s 746 mmHg 91%
    19:00 +4°C° 0 mm 3 m/s 745 mmHg 89%
    20:00 +4°C° 0 mm 3 m/s 745 mmHg 87%
    21:00 +4°C° 0 mm 3 m/s 745 mmHg 85%
    22:00 +3°C° 0 mm 3 m/s 745 mmHg 83%
    23:00 +3°C° 0 mm 3 m/s 744 mmHg 82%

    14 Decembrie, Vineri

    Timp Temperatura Precipitaţii Vânt Presiune Umiditate
    00:00 +4°C° 0 mm 2 m/s 744 mmHg 80%
    01:00 +4°C° 0.1 mm 2 m/s 744 mmHg 82%
    02:00 +4°C° 0.1 mm 2 m/s 743 mmHg 83%
    03:00 +4°C° 0.1 mm 2 m/s 743 mmHg 85%
    04:00 +4°C° 1.1 mm 2 m/s 743 mmHg 87%
    05:00 +5°C° 1.1 mm 2 m/s 743 mmHg 90%
    06:00 +5°C° 1.1 mm 2 m/s 743 mmHg 92%
    07:00 +5°C° 1.3 mm 2 m/s 743 mmHg 93%
    08:00 +5°C° 1.3 mm 2 m/s 743 mmHg 94%
    09:00 +5°C° 1.3 mm 2 m/s 742 mmHg 95%
    10:00 +5°C° 1 mm 3 m/s 742 mmHg 94%
    11:00 +5°C° 1 mm 3 m/s 741 mmHg 93%
    12:00 +7°C° 1 mm 3 m/s 740 mmHg 92%
    13:00 +6°C° 0.4 mm 4 m/s 740 mmHg 93%
    14:00 +6°C° 0.4 mm 5 m/s 740 mmHg 93%
    15:00 +6°C° 0.4 mm 5 m/s 739 mmHg 93%
    16:00 +6°C° 0.2 mm 5 m/s 740 mmHg 93%
    17:00 +6°C° 0.2 mm 5 m/s 740 mmHg 93%
    18:00 +6°C° 0.2 mm 5 m/s 740 mmHg 93%
    19:00 +6°C° 0.1 mm 5 m/s 741 mmHg 93%
    20:00 +5°C° 0.1 mm 4 m/s 741 mmHg 92%
    21:00 +5°C° 0.1 mm 4 m/s 741 mmHg 92%
    22:00 +5°C° 0.1 mm 4 m/s 741 mmHg 92%
    23:00 +5°C° 0.1 mm 4 m/s 741 mmHg 91%

    15 Decembrie, Sâmbătă

    Timp Temperatura Precipitaţii Vânt Presiune Umiditate
    00:00 +5°C° 0.1 mm 4 m/s 741 mmHg 91%
    01:00 +5°C° 0.1 mm 5 m/s 742 mmHg 90%
    02:00 +5°C° 0.1 mm 5 m/s 742 mmHg 89%
    03:00 +5°C° 0.1 mm 5 m/s 742 mmHg 89%
    04:00 +3°C° 0.1 mm 5 m/s 743 mmHg 88%
    05:00 +3°C° 0.1 mm 6 m/s 743 mmHg 88%
    06:00 +2°C° 0.1 mm 6 m/s 744 mmHg 87%
    07:00 +2°C° 0.1 mm 6 m/s 744 mmHg 86%
    08:00 +2°C° 0.1 mm 6 m/s 744 mmHg 84%
    09:00 +2°C° 0.1 mm 6 m/s 745 mmHg 83%
    10:00 +3°C° 0 mm 6 m/s 745 mmHg 78%
    11:00 +4°C° 0 mm 6 m/s 745 mmHg 74%
    12:00 +5°C° 0 mm 6 m/s 745 mmHg 70%
    13:00 +7°C° 0 mm 6 m/s 745 mmHg 69%
    14:00 +7°C° 0 mm 5 m/s 745 mmHg 68%
    15:00 +7°C° 0 mm 4 m/s 746 mmHg 67%
    16:00 +5°C° 0 mm 4 m/s 746 mmHg 70%
    17:00 +4°C° 0 mm 4 m/s 747 mmHg 73%
    18:00 +3°C° 0 mm 3 m/s 747 mmHg 77%
    19:00 +2°C° 0 mm 3 m/s 747 mmHg 79%
    20:00 +2°C° 0 mm 2 m/s 748 mmHg 81%
    21:00 +2°C° 0 mm 2 m/s 748 mmHg 83%
    22:00 +1°C° 0 mm 2 m/s 749 mmHg 83%
    23:00 +1°C° 0 mm 2 m/s 749 mmHg 84%
    Arată mai mult